This demonstration page uses our WeatherBlox Daily Observations layout. Learn more.

Left ArrowRight Arrow

38.83388, -104.82136

Hourly Observations for August 24, 2022

Temp ( °F °C ) Dew Point ( °F °C ) Humidity (%) Winds ( mph kmh ) Pressure ( in mb ) Visibility ( mi km ) Precip ( " mm )
1:58 am 01:58 Clear 63 17.1 39 3.7 41 41 N 5 7 29.53 1000 10 16 0.00 0.00
2:58 am 02:58 Clear 60 15.4 40 4.7 49 49 Calm 29.47 998 10 16 0.00 0.00
3:58 am 03:58 Clear 60 15.7 39 4.1 46 46 NNW 5 7 29.47 998 10 16 0.00 0.00
4:58 am 04:58 Clear 60 15.4 39 4.1 47 47 NW 5 7 29.49 999 10 16 0.00 0.00
5:58 am 05:58 Clear 59 15.2 39 4 47 47 Calm 29.49 999 10 16 0.00 0.00
6:58 am 06:58 Sunny 62 16.9 42 5.5 47 47 Calm 29.58 1002 10 16 0.00 0.00
7:58 am 07:58 Sunny 66 18.7 43 5.9 43 43 N 3 6 29.73 1007 10 16 0.00 0.00
8:58 am 08:58 Sunny 69 20.7 46 8 44 44 SE 6 9 29.88 1012 10 16 0.00 0.00
9:58 am 09:58 Sunny 70 21.3 46 7.9 42 42 SE 3 6 29.90 1012 10 16 0.00 0.00
10:58 am 10:58 Sunny 72 22.4 47 8.1 40 40 E 5 7 29.88 1012 10 16 0.00 0.00
11:58 am 11:58 Sunny 73 22.5 46 7.8 39 39 SSE 6 9 29.88 1012 10 16 0.00 0.00
12:58 pm 12:58 Sunny 76 24.5 47 8.4 36 36 E 7 11 29.95 1014 10 16 0.00 0.00
1:58 pm 13:58 Sunny 76 24.3 45 7 33 33 SE 6 9 29.96 1015 10 16 0.00 0.00
2:58 pm 14:58 Sunny 76 24.7 44 6.4 31 31 E 8 13 29.97 1015 10 16 0.00 0.00
3:58 pm 15:58 Sunny 77 25 43 6.2 30 30 E 6 9 29.99 1016 10 16 0.00 0.00
4:58 pm 16:58 Sunny 74 23.5 41 4.9 30 30 SE 6 9 29.83 1010 10 16 0.00 0.00
5:58 pm 17:58 Sunny 73 22.7 39 3.7 29 29 SSE 9 15 29.65 1004 10 16 0.00 0.00
6:58 pm 18:58 Mostly Sunny 71 21.8 33 0.3 24 24 S 9 15 29.63 1004 10 16 0.00 0.00
7:58 pm 19:58 Clear 71 21.6 30 -1 22 22 SSW 8 13 29.63 1003 10 16 0.00 0.00
8:58 pm 20:58 Clear 70 21.2 32 -0.2 24 24 S 9 15 29.62 1003 10 16 0.00 0.00
9:58 pm 21:58 Clear 70 21 32 0.2 25 25 S 13 20 29.65 1004 10 16 0.00 0.00
10:58 pm 22:58 Clear 68 20.1 39 3.7 34 34 SSW 10 17 29.62 1003 10 16 0.00 0.00
11:58 pm 23:58 Clear 67 19.3 40 4.6 38 38 S 8 13 29.59 1002 10 16 0.00 0.00

Powered by AerisWeather